Weather History for Hurlburt Field, FL

Change the Weather History Date:

Friday, November 9, 2012

  Actual Average Record
Temperature  
Mean Temperature 53 °F -  
Max Temperature 68 °F 70 °F 78 °F (1998)
Min Temperature 38 °F 51 °F 37 °F (1997)
Degree Days  
Heating Degree Days 12    
Growing Degree Days 3 (Base 50)    
Moisture  
Dew Point 46 °F    
Average Humidity 67    
Maximum Humidity 97    
Minimum Humidity 46    
Precipitation  
Precipitation 0.00 in - - ()
Sea Level Pressure  
Sea Level Pressure 30.26 in    
Wind  
Wind Speed 6 mph (East)    
Max Wind Speed 10 mph    
Max Gust Speed -    
Visibility 10 miles    
Events Rain    
Averages and records for this station are not official NWS values.
T = Trace of Precipitation, MM = Missing Value Source: NWS Daily Summary

Daily Weather History Graph

Daily Weather History Graph

Search for Another Location

Airport:

Trip Planner

Search our weather history database for the weather conditions in past years. The results will help you decide how hot, cold, wet, or windy it might be!

Date:

Astronomy

Nov. 09, 2012 Rise Set
Actual Time 6:07 AM CST 4:52 PM CST
Civil Twilight 5:42 AM CST 5:18 PM CST
Nautical Twilight 5:14 AM CST 5:46 PM CST
Astronomical Twilight 4:45 AM CST 6:15 PM CST
Moon 1:25 AM CST (11/9) 1:49 PM CST (11/9)
Length of Visible Light 11h 35m
Length of Day
10h 44m
Waning Crescent, 23% of the Moon is Illuminated
Nov 9
Waning Crescent
Nov 13
New
Nov 20
First Quarter
Nov 28
Full
Dec 6
Last Quarter

Hourly Weather History & Observations

Time (CST) Temp. Windchill Dew Point Humidity Pressure Visibility Wind Dir Wind Speed Gust Speed Precip Events Conditions
12:55 AM 40.3 °F 36.3 °F 38.7 °F 94% 30.21 in 10.0 mi North 5.8 mph - N/A   Clear
1:55 AM 39.7 °F 35.6 °F 38.1 °F 94% 30.22 in 10.0 mi North 5.8 mph - N/A   Clear
3:55 AM 38.8 °F 33.8 °F 37.4 °F 95% 30.22 in 10.0 mi North 6.9 mph - N/A   Clear
4:55 AM 38.7 °F 34.3 °F 37.6 °F 96% 30.24 in 10.0 mi North 5.8 mph - N/A   Clear
5:55 AM 38.3 °F 33.2 °F 37.4 °F 97% 30.25 in 10.0 mi North 6.9 mph - N/A   Clear
6:55 AM 41.9 °F 38.2 °F 40.5 °F 95% 30.28 in 10.0 mi NNE 5.8 mph - N/A   Clear
7:55 AM 53.2 °F - 46.4 °F 78% 30.29 in 10.0 mi NE 4.6 mph - N/A   Clear
8:25 AM 57.2 °F - 46.4 °F 67% 30.30 in 10.0 mi ENE 6.9 mph - N/A   Light Drizzle
8:35 AM 59.0 °F - 46.4 °F 63% 30.30 in 10.0 mi ENE 5.8 mph - N/A   Clear
8:46 AM 59.0 °F - 46.4 °F 63% 30.30 in 10.0 mi ENE 5.8 mph - N/A Rain Light Rain
8:55 AM 60.6 °F - 46.4 °F 59% 30.30 in 10.0 mi ENE 5.8 mph - 0.00 in Rain Light Rain
9:03 AM 60.8 °F - 46.4 °F 59% 30.30 in 10.0 mi East 6.9 mph - N/A   Clear
9:40 AM 64.4 °F - 46.4 °F 52% 30.30 in 10.0 mi ENE 4.6 mph - N/A   Light Drizzle
9:55 AM 64.8 °F - 44.6 °F 48% 30.31 in 10.0 mi East 5.8 mph - 0.00 in   Light Drizzle
10:06 AM 64.4 °F - 44.6 °F 49% 30.31 in 10.0 mi Variable 4.6 mph - N/A   Clear
10:23 AM 64.4 °F - 46.4 °F 52% 30.30 in 10.0 mi Variable 4.6 mph - N/A Rain Light Rain
10:39 AM 66.2 °F - 46.4 °F 49% 30.30 in 10.0 mi Variable 3.5 mph - N/A   Clear
10:41 AM 66.2 °F - 46.4 °F 49% 30.30 in 10.0 mi ESE 5.8 mph - N/A Rain Light Rain
10:55 AM 66.7 °F - 47.3 °F 50% 30.29 in 10.0 mi Variable 4.6 mph - 0.00 in Rain Light Rain
11:26 AM 68.0 °F - 46.4 °F 46% 30.28 in 10.0 mi SE 9.2 mph - N/A   Clear
11:55 AM 68.0 °F - 47.1 °F 47% 30.27 in 10.0 mi SSE 9.2 mph - 0.00 in   Clear
12:50 PM 68.0 °F - 48.2 °F 49% 30.24 in 10.0 mi SSE 9.2 mph - N/A   Light Drizzle
12:55 PM 67.5 °F - 48.7 °F 51% 30.24 in 10.0 mi SSE 9.2 mph - 0.00 in   Light Drizzle
1:00 PM 68.0 °F - 48.2 °F 49% 30.24 in 10.0 mi SSE 9.2 mph - N/A   Clear
1:55 PM 66.7 °F - 48.7 °F 52% 30.22 in 10.0 mi South 10.4 mph - 0.00 in   Clear
2:34 PM 66.2 °F - 48.2 °F 52% 30.21 in 10.0 mi SSE 9.2 mph - N/A Rain Light Rain
2:45 PM 66.2 °F - 48.2 °F 52% 30.21 in 10.0 mi South 9.2 mph - N/A   Clear
2:55 PM 66.2 °F - 48.7 °F 53% 30.21 in 10.0 mi South 6.9 mph - 0.00 in   Clear
3:40 PM 66.2 °F - 48.2 °F 52% 30.22 in 10.0 mi South 5.8 mph - N/A   Light Drizzle
3:45 PM 66.2 °F - 48.2 °F 52% 30.22 in 10.0 mi South 5.8 mph - N/A   Clear
3:55 PM 65.1 °F - 49.5 °F 57% 30.22 in 10.0 mi South 5.8 mph - 0.00 in   Clear
4:19 PM 64.4 °F - 48.2 °F 56% 30.22 in 10.0 mi SSW 3.5 mph - N/A   Light Drizzle
4:28 PM 64.4 °F - 50.0 °F 59% 30.22 in 10.0 mi SSW 3.5 mph - N/A   Clear
4:55 PM 63.0 °F - 48.2 °F 59% 30.23 in 10.0 mi Calm Calm - 0.00 in   Clear
5:55 PM 56.5 °F - 49.6 °F 78% 30.23 in 10.0 mi Calm Calm - N/A   Clear
6:55 PM 51.3 °F - 48.4 °F 90% 30.24 in 10.0 mi North 3.5 mph - N/A   Clear
7:55 PM 48.9 °F - 47.1 °F 93% 30.24 in 10.0 mi North 3.5 mph - N/A   Clear
8:55 PM 47.5 °F - 45.9 °F 94% 30.25 in 10.0 mi North 4.6 mph - N/A   Clear
9:55 PM 45.9 °F 43.6 °F 44.6 °F 95% 30.26 in 10.0 mi North 4.6 mph - N/A   Clear
10:55 PM 44.4 °F 42.0 °F 43.3 °F 96% 30.25 in 10.0 mi North 4.6 mph - N/A   Clear
11:55 PM 43.7 °F 40.3 °F 42.6 °F 96% 30.25 in 10.0 mi North 5.8 mph - N/A   Clear